Temp
75 74 73 73 74 73 73 73 72 73 73 72 70 70 67 63 72 73 76 78 76 75 76 75 73 73 74 73 74 73 72 71 65 65 65 63 60 58 56 57 57 55 54
75 74 73 72 72 71 70 71 71 71 73 73 72 70 69 71 70 71 75 79 77 75 76 74 75 78 73 73 72 71 72 72 69 62 64 62 59 57 56 55 55 56 55
74 73 71 70 70 69 69 70 71 70 71 71 72 71 70 70 68 66 71 73 73 76 76 75 75 74 71 72 72 71 71 72 70 67 64 63 58 56 55 55 54 55 56
72 71 69 69 69 69 69 69 70 71 70 70 70 71 71 71 69 68 67 65 69 72 77 76 75 74 72 65 63 61 61 62 69 65 65 63 59 58 57 53 51 54 53
71 69 68 68 69 68 68 69 69 69 69 70 70 69 69 70 68 63 64 65 65 65 68 72 69 69 66 65 64 62 61 60 59 64 66 63 61 57 56 56 55 53 53
68 68 69 69 69 67 67 67 67 68 68 68 68 68 68 71 55 55 59 63 65 64 61 63 64 62 61 59 60 61 62 61 61 60 65 65 62 60 61 57 56 52 50
68 69 69 69 68 68 68 67 65 64 65 65 65 66 66 67 55 50 52 65 65 65 65 64 62 63 62 63 59 59 58 57 62 64 62 65 64 65 65 60 56 53 56
66 67 69 68 66 64 63 63 64 64 63 62 62 63 64 67 57 49 49 63 65 66 67 65 62 60 61 61 61 61 64 64 64 67 66 69 70 69 67 65 60 56 54
64 64 65 64 62 62 60 60 58 58 61 62 63 62 61 63 57 48 51 64 65 66 67 67 65 64 56 52 61 62 64 65 62 61 59 55 54 59 65 64 58 56 54
60 57 58 59 59 58 58 58 58 58 59 62 62 62 60 61 56 48 49 63 63 65 66 66 57 61 52 51 61 63 62 65 65 58 58 56 56 55 56 67 64 59 57
55 56 56 56 55 55 55 55 54 55 57 57 58 58 59 59 60 53 45 58 64 63 64 63 64 50 50 48 52 63 63 65 61 65 63 62 64 64 64 64 66 64 61
52 51 51 51 52 54 51 52 52 52 52 53 54 56 59 60 57 56 47 45 56 61 62 62 61 49 46 48 49 55 51 56 65 64 64 64 66 65 66 65 65 66 64
49 48 48 49 49 50 48 48 48 49 49 50 52 53 55 59 60 53 50 44 45 52 59 57 47 46 45 46 46 49 49 60 62 62 62 65 67 69 69 65 64 62 60
46 46 47 46 47 48 49 48 47 47 46 47 46 48 51 55 58 51 49 52 48 49 51 54 53 50 49 53 52 49 56 60 61 62 62 66 69 69 64 65 60 58 55
45 45 44 45 44 44 45 46 46 48 47 46 46 47 48 49 53 45 44 45 44 53 54 55 53 53 53 54 55 53 56 58 58 60 61 62 63 64 65 64 61 58 54
41 42 41 40 41 42 42 42 44 43 43 42 42 44 48 45 43 44 42 42 42 42 52 51 50 51 51 55 54 54 56 56 57 59 59 61 61 62 63 64 62 60 54
38 38 39 38 38 38 39 39 38 43 43 42 41 41 41 43 42 41 42 41 41 42 47 53 53 51 50 51 54 57 55 55 57 58 58 58 60 61 62 62 61 60 55
39 39 37 37 37 37 37 37 38 38 39 42 44 41 42 40 40 39 40 40 44 45 48 50 54 54 52 52 53 53 55 56 54 54 56 58 58 59 61 64 63 61 57
38 37 37 37 37 37 36 36 37 37 38 40 43 44 43 40 39 39 38 45 46 46 50 53 55 57 56 53 52 55 55 56 56 55 55 55 56 58 58 59 62 54 53
37 37 37 36 36 35 35 35 36 37 37 39 40 42 45 43 44 46 46 46 47 50 52 54 56 58 58 56 54 53 54 55 56 56 55 55 55 56 57 58 59 61 59
35 35 34 36 36 36 36 36 36 36 36 37 38 42 37 41 43 44 46 49 50 51 53 54 57 59 60 60 60 56 54 57 59 59 58 56 56 56 56 59 60 62 63
35 35 35 35 36 36 36 36 36 36 36 36 37 38 35 40 42 42 44 45 48 51 54 55 56 58 60 61 62 61 58 58 61 61 61 60 57 58 60 59 62 65 62
36 36 36 36 36 35 36 36 36 36 36 36 37 37 37 38 39 42 44 46 48 48 50 52 54 56 57 58 60 60 60 64 65 65 64 63 62 59 62 64 65 65 63
37 37 36 35 35 35 35 35 35 35 36 36 37 37 37 38 38 39 43 45 47 47 49 51 52 53 54 56 58 60 60 62 64 66 64 65 65 59 64 65 65 67 66
39 38 37 36 35 34 34 35 35 35 35 36 36 37 37 38 39 39 40 43 45 46 48 49 51 52 53 54 56 58 54 39 55 47 63 63 60 60 65 64 63 65 64
39 38 37 36 35 34 33 33 33 34 34 35 35 36 36 37 38 39 40 40 41 42 44 47 49 51 52 54 55 49 41 39 49 40 58 60 59 59 59 61 64 62 61
MSLP
1012.76 1012.85 1012.72 1012.73 1012.54 1012.33 1012.08 1011.66 1011.35 1011.08 1010.81 1010.29 1010.64 1010.03 1010.54 1010.40 1011.25 1010.14 1009.49 1009.59 1010.21 1010.48 1010.42 1010.33 1010.80 1010.91 1011.36 1011.56 1012.17 1012.73 1013.43 1013.95 1015.43 1017.10 1017.86 1019.19 1019.82 1020.23 1020.68 1021.13 1021.53 1022.16 1022.43
1012.86 1012.96 1012.90 1012.92 1012.91 1012.67 1012.36 1012.07 1011.50 1011.22 1011.08 1010.70 1009.96 1009.49 1009.86 1010.08 1010.35 1010.79 1009.98 1009.00 1009.46 1009.99 1010.46 1010.74 1010.68 1011.08 1011.27 1011.50 1012.08 1012.61 1013.11 1013.53 1014.48 1016.26 1017.73 1018.59 1019.53 1020.39 1020.79 1021.04 1021.51 1022.11 1022.29
1013.01 1013.03 1013.01 1013.03 1012.93 1012.88 1012.66 1012.14 1011.55 1010.99 1010.92 1010.90 1010.69 1010.29 1010.13 1009.95 1009.95 1009.17 1008.11 1009.92 1010.20 1009.55 1009.90 1010.12 1009.86 1010.23 1011.01 1011.74 1012.01 1012.74 1013.26 1013.55 1014.15 1015.37 1016.71 1017.60 1019.32 1020.23 1020.98 1021.27 1021.44 1021.70 1022.15
1013.19 1013.18 1013.20 1013.13 1013.00 1012.78 1012.59 1012.21 1011.79 1011.08 1010.46 1010.51 1010.55 1010.49 1010.12 1009.98 1010.23 1010.31 1009.45 1010.48 1011.49 1009.78 1008.47 1009.35 1009.40 1009.39 1010.19 1011.69 1012.69 1013.28 1013.95 1014.71 1014.74 1015.17 1016.36 1017.16 1018.31 1019.45 1020.33 1020.83 1021.35 1021.50 1022.01
1013.29 1013.26 1013.24 1013.13 1012.87 1012.73 1012.48 1012.15 1011.82 1011.44 1010.82 1010.04 1009.80 1010.33 1010.61 1010.47 1010.30 1010.54 1010.94 1010.89 1011.27 1011.66 1007.48 1008.81 1008.53 1008.85 1009.23 1010.60 1011.72 1012.60 1012.78 1014.26 1015.17 1015.64 1015.78 1016.54 1017.52 1018.66 1019.13 1019.88 1020.42 1020.95 1021.47
1013.37 1013.41 1013.17 1012.84 1012.58 1012.44 1012.31 1012.16 1011.87 1011.50 1010.99 1010.49 1009.67 1009.26 1010.33 1010.67 1010.84 1010.82 1010.81 1011.06 1011.17 1010.28 1010.46 1010.51 1011.99 1010.61 1009.69 1010.56 1011.21 1011.54 1012.54 1013.70 1014.35 1015.80 1015.75 1015.67 1016.13 1016.90 1017.95 1018.58 1019.46 1020.38 1021.04
1013.18 1013.22 1013.04 1012.70 1012.39 1012.05 1011.79 1011.67 1011.54 1011.43 1011.25 1010.99 1010.41 1009.67 1008.72 1009.74 1010.43 1010.84 1010.62 1010.55 1010.53 1010.41 1009.94 1009.87 1010.60 1009.39 1010.05 1010.84 1011.46 1012.66 1012.70 1013.06 1012.87 1014.14 1015.20 1015.20 1015.21 1015.68 1016.34 1017.50 1018.42 1019.07 1019.80
1013.36 1013.19 1012.97 1012.57 1012.33 1012.43 1012.33 1011.84 1011.33 1010.89 1010.80 1010.78 1010.60 1010.31 1009.71 1008.66 1008.78 1009.61 1010.27 1009.93 1009.77 1009.58 1009.40 1009.45 1009.44 1009.85 1010.37 1011.02 1011.44 1011.77 1012.62 1012.81 1012.90 1012.38 1013.55 1014.19 1014.41 1014.54 1015.15 1015.93 1017.11 1018.47 1019.50
1013.86 1013.66 1013.50 1013.02 1012.93 1012.73 1012.64 1012.34 1012.14 1011.85 1011.05 1010.56 1010.31 1010.04 1009.81 1009.26 1008.77 1008.41 1009.15 1009.48 1009.40 1009.01 1008.67 1008.89 1009.40 1009.88 1010.41 1010.77 1011.30 1011.54 1012.00 1012.08 1012.26 1012.12 1012.44 1013.37 1013.70 1013.98 1014.49 1015.72 1017.09 1017.99 1018.77
1014.62 1014.92 1014.69 1014.04 1013.48 1013.25 1012.93 1012.58 1012.23 1011.90 1011.35 1010.81 1010.14 1009.75 1009.53 1009.27 1009.09 1008.52 1008.38 1008.33 1008.44 1008.68 1008.53 1008.31 1008.35 1008.74 1009.45 1010.18 1010.69 1010.78 1011.08 1011.28 1011.88 1012.91 1013.25 1013.55 1013.77 1013.95 1014.40 1014.83 1015.95 1016.71 1017.44
1015.69 1015.34 1014.87 1014.43 1014.10 1013.73 1013.25 1013.00 1012.77 1012.14 1011.42 1010.80 1010.31 1009.93 1009.52 1009.26 1009.10 1008.86 1008.43 1008.13 1007.42 1007.65 1007.99 1008.24 1008.46 1008.70 1008.94 1009.60 1009.99 1010.12 1010.30 1010.57 1010.70 1011.55 1012.25 1012.94 1013.32 1013.72 1014.13 1014.55 1014.80 1015.29 1016.01
1015.94 1015.62 1015.36 1014.95 1014.52 1013.97 1013.61 1013.21 1012.82 1012.30 1011.63 1010.87 1010.27 1009.55 1009.16 1008.75 1008.69 1008.30 1007.92 1007.87 1007.27 1007.06 1007.10 1007.55 1007.79 1008.04 1008.39 1008.81 1009.26 1009.42 1009.56 1010.23 1010.44 1010.90 1011.50 1012.21 1012.12 1012.72 1013.45 1014.17 1014.41 1014.78 1015.33
1015.84 1015.47 1015.10 1014.72 1014.30 1013.84 1013.34 1012.88 1012.47 1012.04 1011.41 1010.81 1010.11 1009.59 1008.88 1008.57 1008.24 1008.20 1007.37 1006.98 1006.82 1007.20 1006.70 1006.83 1007.35 1007.68 1007.86 1008.38 1008.56 1008.76 1009.17 1009.52 1009.63 1010.09 1010.37 1010.56 1011.08 1011.38 1012.41 1013.46 1014.72 1015.29 1015.78
1015.47 1015.10 1014.70 1014.25 1013.75 1013.34 1012.88 1012.44 1011.96 1011.48 1010.98 1010.57 1010.23 1009.54 1009.04 1008.58 1008.26 1008.63 1008.39 1007.91 1007.48 1007.30 1006.88 1006.86 1007.06 1007.47 1007.84 1007.96 1008.28 1008.83 1008.89 1008.81 1008.70 1009.07 1009.33 1009.79 1010.38 1010.77 1011.96 1012.69 1014.61 1015.36 1016.09
1015.28 1014.89 1014.43 1013.95 1013.45 1012.92 1012.44 1011.92 1011.42 1010.92 1010.63 1010.32 1009.96 1009.63 1009.04 1008.57 1008.21 1008.79 1008.90 1008.59 1008.40 1007.18 1006.87 1007.09 1007.20 1007.33 1007.62 1007.74 1007.85 1008.12 1008.21 1008.12 1008.32 1008.46 1008.87 1009.48 1009.85 1010.33 1011.18 1012.25 1013.79 1014.99 1015.48
1015.10 1014.63 1014.23 1013.75 1013.18 1012.66 1011.99 1011.17 1010.81 1010.27 1009.86 1009.57 1009.36 1009.31 1008.91 1008.72 1008.47 1008.57 1008.64 1008.59 1008.38 1007.67 1006.86 1006.97 1007.11 1007.07 1007.26 1007.16 1007.65 1007.55 1007.50 1007.37 1007.75 1007.95 1008.44 1009.28 1009.68 1010.15 1010.38 1011.64 1012.91 1014.11 1015.00
1015.05 1014.43 1013.85 1013.32 1012.67 1012.08 1011.46 1010.83 1009.94 1009.36 1008.92 1008.52 1008.32 1008.15 1008.07 1007.95 1007.91 1008.02 1008.08 1008.13 1008.14 1007.98 1007.57 1006.84 1006.78 1006.92 1007.05 1007.09 1007.27 1007.02 1007.10 1006.78 1007.00 1007.38 1008.21 1009.09 1009.57 1008.91 1009.44 1010.80 1012.14 1013.05 1014.23
1014.66 1014.14 1013.55 1012.84 1012.25 1011.64 1011.12 1010.56 1009.94 1009.16 1008.33 1007.75 1007.35 1007.17 1006.94 1006.98 1006.92 1007.10 1007.36 1007.63 1007.66 1007.63 1007.55 1006.96 1006.15 1006.31 1006.55 1006.77 1006.86 1006.89 1006.95 1007.00 1007.11 1007.30 1007.84 1008.16 1009.24 1008.60 1009.12 1009.96 1010.97 1011.80 1013.03
1014.31 1013.69 1013.08 1012.41 1011.82 1011.22 1010.64 1009.99 1009.35 1008.66 1007.95 1007.27 1006.79 1006.42 1006.05 1005.99 1006.04 1006.16 1006.43 1006.66 1006.59 1006.57 1006.52 1006.26 1005.81 1005.56 1005.79 1006.16 1006.56 1006.74 1006.80 1006.92 1007.01 1007.49 1007.94 1008.08 1008.68 1008.86 1009.59 1009.93 1009.97 1010.82 1011.85
1014.14 1013.51 1012.82 1012.04 1011.25 1010.59 1009.99 1009.33 1008.67 1008.06 1007.45 1006.82 1006.29 1005.86 1005.57 1005.34 1005.31 1005.34 1005.50 1005.60 1005.50 1005.27 1005.19 1005.22 1005.15 1005.08 1004.99 1005.30 1005.80 1006.31 1006.57 1006.42 1006.57 1006.74 1007.50 1008.13 1008.38 1009.26 1009.37 1009.54 1009.92 1009.98 1010.69
1013.92 1013.15 1012.49 1011.63 1010.84 1010.08 1009.36 1008.67 1008.05 1007.45 1006.86 1006.35 1005.85 1005.45 1005.17 1004.98 1004.66 1004.56 1004.44 1004.12 1004.00 1003.95 1004.02 1004.19 1004.16 1004.18 1003.91 1004.26 1004.63 1005.14 1005.77 1005.81 1005.76 1006.02 1006.67 1007.47 1007.91 1008.28 1008.95 1008.92 1008.99 1009.24 1009.60
1013.66 1012.86 1012.06 1011.31 1010.50 1009.68 1008.95 1008.33 1007.57 1006.86 1006.23 1005.68 1005.19 1004.84 1004.68 1004.46 1004.10 1003.98 1003.86 1003.70 1003.27 1003.23 1003.13 1003.20 1003.26 1003.27 1003.31 1003.48 1003.56 1004.06 1004.43 1004.65 1004.52 1005.06 1005.46 1006.21 1006.67 1007.49 1008.08 1008.40 1008.29 1007.77 1008.76
1013.33 1012.51 1011.70 1010.89 1010.15 1009.35 1008.49 1007.74 1006.98 1006.32 1005.65 1005.12 1004.61 1004.18 1003.90 1003.62 1003.38 1003.03 1002.86 1002.78 1002.80 1002.80 1002.69 1002.72 1002.68 1002.80 1003.04 1003.23 1003.46 1003.54 1003.73 1003.24 1002.82 1003.34 1003.95 1004.81 1005.77 1006.58 1007.03 1007.16 1007.14 1007.15 1007.74
1012.85 1012.15 1011.40 1010.59 1009.81 1009.08 1008.22 1007.36 1006.55 1005.80 1005.09 1004.41 1003.92 1003.47 1003.11 1002.79 1002.46 1002.19 1001.97 1001.86 1001.84 1002.02 1002.15 1002.25 1002.33 1002.40 1002.65 1002.98 1003.24 1003.38 1003.47 1003.34 1002.86 1002.46 1003.15 1003.97 1004.56 1005.34 1005.53 1006.09 1006.26 1006.54 1007.16
1012.47 1011.75 1011.04 1010.31 1009.55 1008.75 1007.85 1007.01 1006.16 1005.37 1004.64 1003.94 1003.30 1002.83 1002.38 1002.06 1001.68 1001.34 1001.35 1001.29 1001.29 1001.39 1001.39 1001.51 1001.78 1002.09 1002.34 1002.59 1002.76 1003.03 1003.26 1003.36 1003.32 1003.16 1003.23 1003.92 1004.52 1004.84 1004.91 1005.36 1005.73 1006.21 1006.81
1012.40 1011.67 1010.93 1010.14 1009.35 1008.53 1007.64 1006.64 1005.73 1004.92 1004.17 1003.42 1002.85 1002.27 1001.81 1001.41 1001.08 1000.79 1000.57 1000.70 1000.77 1000.90 1001.21 1001.21 1001.24 1001.49 1001.80 1002.08 1002.35 1002.58 1003.04 1003.22 1003.35 1003.48 1003.83 1004.30 1004.74 1005.02 1005.18 1005.32 1005.66 1006.22 1006.46
Wind_Speed
7 7 8 9 10 10 9 10 10 12 8 12 10 9 12 20 23 12 13 12 15 11 11 11 9 7 3 5 4 3 3 3 8 5 5 7 5 8 8 8 7 5 4
6 5 6 6 9 7 8 9 12 14 12 9 10 9 6 8 12 13 22 13 15 13 11 8 12 8 6 6 5 6 5 5 6 12 9 5 4 7 6 7 5 4 3
7 7 6 6 6 7 9 10 9 11 12 12 9 8 9 9 5 6 23 12 8 12 13 13 13 13 8 3 4 4 3 3 4 7 6 4 3 5 3 3 4 5 2
9 8 7 6 7 7 8 8 10 11 13 12 10 11 10 8 7 5 2 11 21 20 19 16 11 13 11 10 9 8 7 8 3 5 6 5 4 6 4 4 3 3 4
8 8 7 7 7 9 9 8 9 9 12 13 12 9 9 9 4 5 1 4 6 21 20 9 4 11 20 14 9 7 9 5 4 6 3 4 6 6 7 5 4 4 3
9 10 10 10 9 7 7 9 9 10 9 10 13 13 8 7 8 6 2 3 7 5 11 13 7 12 14 11 10 15 11 5 2 1 5 2 9 7 8 8 6 3 3
10 11 12 12 11 9 9 8 8 7 8 11 12 13 16 8 4 2 3 3 3 5 6 12 12 5 7 12 13 8 12 12 11 7 3 4 5 9 10 10 7 5 3
13 13 13 13 11 12 14 12 9 7 6 6 9 12 16 15 11 6 6 6 4 5 5 8 8 10 11 13 17 15 15 12 12 8 8 5 3 6 11 8 9 7 6
14 14 15 14 14 12 14 13 10 12 11 8 8 10 14 15 20 11 6 5 7 8 7 6 12 13 15 16 14 16 17 13 8 7 11 11 10 10 10 9 7 6 3
15 15 15 16 15 15 14 13 12 12 12 11 12 10 11 14 15 12 10 6 7 6 7 6 9 11 17 23 18 17 17 18 11 5 4 5 6 6 10 9 9 7 4
15 16 15 14 15 15 13 12 13 14 14 13 12 11 12 13 16 15 12 11 7 6 6 6 6 13 15 20 22 16 18 14 12 11 7 5 5 5 4 4 6 4 4
13 15 14 13 12 11 14 13 14 14 15 14 14 12 10 12 15 16 15 17 12 8 8 6 5 9 11 15 17 21 12 13 9 11 11 11 11 9 7 6 5 3 5
13 14 13 15 13 13 13 13 11 12 11 12 11 12 10 10 10 14 19 17 18 6 6 5 6 8 7 8 14 13 13 11 11 12 12 11 11 10 10 8 8 11 10
14 13 13 12 13 13 11 10 10 10 10 10 10 10 10 9 11 3 7 9 9 7 5 3 5 6 6 6 4 10 11 10 12 11 10 9 9 10 8 10 8 8 8
12 13 13 11 12 12 11 10 10 11 10 10 10 9 9 10 7 5 5 6 10 9 5 3 2 4 6 4 4 7 10 11 9 10 8 9 9 9 10 11 10 8 5
13 11 11 11 11 11 11 12 14 17 18 16 18 16 12 16 19 15 5 10 11 14 4 3 3 2 2 4 5 3 6 9 8 7 5 7 8 10 12 13 12 10 9
13 13 11 12 10 10 10 10 12 10 16 17 19 21 21 21 17 11 13 10 8 3 4 5 5 5 5 5 5 6 5 3 6 7 6 6 7 11 14 14 12 11 10
13 19 10 10 10 10 9 10 10 11 10 9 11 14 16 20 19 14 13 6 6 5 7 8 5 7 6 4 5 4 4 6 4 5 5 2 6 3 4 13 13 13 12
12 10 11 10 9 11 10 10 10 10 10 10 9 10 10 15 13 12 13 8 8 9 9 9 9 7 7 6 4 5 7 6 7 7 7 6 3 3 6 4 11 14 15
11 16 14 10 9 9 9 9 9 9 10 9 9 9 8 7 7 8 9 9 10 10 10 11 10 9 7 8 8 8 7 8 7 6 6 8 6 4 5 7 6 12 14
9 10 13 9 9 9 9 9 8 8 8 9 9 9 9 7 8 7 8 9 10 10 11 11 10 11 8 11 9 11 11 9 10 11 9 8 8 8 7 7 8 10 14
9 9 9 10 9 9 9 9 9 9 9 9 9 8 8 7 9 9 10 9 8 9 8 10 11 10 9 8 7 10 10 13 14 12 11 10 9 9 10 10 11 5 14
9 10 10 10 9 12 10 9 9 9 9 9 9 8 8 8 8 9 10 10 9 8 7 8 9 10 9 9 9 7 7 9 10 11 10 12 13 10 13 11 11 8 8
9 10 10 10 10 10 10 10 10 11 10 9 8 8 7 7 9 10 10 10 9 9 8 9 8 9 8 10 11 8 8 9 8 6 9 10 11 9 8 8 6 10 6
10 10 10 10 10 11 12 11 11 11 10 10 9 8 7 7 8 8 8 8 8 6 7 9 9 10 12 13 12 14 10 8 5 6 2 1 3 4 6 6 4 6 6
11 12 11 10 11 11 11 11 11 11 10 10 9 9 7 7 7 7 7 8 8 9 11 8 9 14 16 15 16 13 8 7 6 6 1 2 2 3 3 5 8 3 6
Wind_Direction
34 6 355 1 353 357 347 338 336 332 350 337 348 328 226 226 236 237 212 213 205 199 201 182 185 193 189 145 146 157 157 141 113 109 110 126 106 114 112 120 129 137 140
24 2 351 6 346 339 329 338 335 332 335 346 355 337 332 224 216 236 243 215 200 207 194 197 186 193 196 171 161 176 166 170 123 143 138 140 100 127 135 127 130 142 171
353 348 345 347 341 329 322 321 317 319 327 332 342 345 345 337 345 258 235 300 264 204 207 201 190 179 183 168 95 103 81 102 114 135 136 129 110 137 132 128 156 142 174
341 326 325 332 323 305 303 308 316 318 317 321 329 334 331 345 13 356 339 240 274 294 205 209 200 181 162 123 107 97 73 36 344 126 141 154 135 153 153 154 154 157 161
316 314 310 307 299 310 310 302 304 305 307 310 315 322 330 335 56 65 339 309 252 286 289 232 174 149 139 142 140 144 103 98 65 301 167 157 134 155 182 168 164 153 160
321 308 301 292 282 282 290 300 302 299 295 302 309 311 315 316 125 182 214 225 229 260 195 212 225 164 138 141 115 114 114 120 114 223 293 214 168 164 176 162 141 143 197
310 304 301 297 295 283 271 273 276 294 316 317 311 306 305 291 115 147 285 229 241 273 247 216 174 195 172 138 106 127 189 195 165 161 256 281 165 177 165 161 152 153 178
321 315 305 299 329 352 344 325 294 261 266 289 304 309 313 309 306 203 183 286 282 266 275 173 184 167 180 184 176 190 209 212 205 173 181 247 172 149 155 155 153 115 91
314 319 322 330 329 330 327 323 321 333 312 279 279 290 298 301 313 274 205 223 265 272 264 241 187 190 197 203 195 196 209 217 215 191 158 140 141 134 132 116 127 144 131
328 332 332 330 328 325 319 308 307 302 294 299 292 278 279 297 303 293 253 242 248 260 270 253 232 222 192 197 201 202 206 212 206 152 135 98 143 136 141 153 159 170 150
325 325 320 319 319 314 306 307 314 311 303 286 283 293 292 287 288 291 250 272 265 259 259 255 242 228 218 197 206 207 213 222 202 194 177 162 157 158 164 177 168 170 174
313 306 305 305 305 304 299 298 299 296 293 286 289 277 269 270 272 277 246 224 260 258 259 269 264 279 233 224 200 220 215 188 201 196 191 198 187 175 174 174 180 119 57
304 300 298 296 294 293 291 292 289 286 279 284 277 278 286 293 289 315 283 228 226 233 240 254 304 260 244 216 213 208 182 205 198 195 197 191 192 179 172 148 105 98 84
306 305 302 299 297 292 284 279 278 277 272 266 273 280 270 271 272 36 354 346 262 243 233 212 216 208 215 237 191 215 217 212 203 201 193 186 188 180 171 146 143 132 110
309 307 303 297 297 297 288 281 276 274 268 272 272 282 277 263 273 38 47 4 349 277 174 180 170 187 189 188 201 203 215 203 205 190 186 198 199 186 167 157 149 161 138
310 308 304 301 296 293 291 287 269 259 263 254 256 253 267 262 278 294 316 332 350 337 200 184 216 191 260 208 209 197 197 194 185 178 154 199 207 205 172 162 154 168 149
306 304 303 298 295 292 291 289 291 283 264 252 250 248 244 251 260 259 279 288 298 354 297 250 201 204 219 240 281 192 207 195 168 197 172 194 222 215 164 161 161 159 149
304 304 300 297 295 294 291 288 285 285 285 281 262 243 247 241 247 231 219 212 265 228 243 265 246 199 203 211 225 242 258 165 172 143 179 223 246 144 221 169 166 162 152
313 306 302 298 293 290 286 279 278 280 277 279 278 273 249 242 236 220 196 220 224 229 230 249 253 225 200 205 223 232 222 216 171 167 166 168 234 187 217 258 172 166 149
312 307 306 302 296 291 286 281 279 279 279 274 273 272 268 260 247 237 214 215 225 230 221 224 237 240 230 197 210 222 249 216 198 169 169 175 178 223 227 220 259 170 164
309 309 307 302 305 300 293 288 285 280 275 274 272 270 267 267 264 252 246 243 230 228 223 225 225 232 235 216 210 199 217 234 206 193 182 184 182 182 217 243 237 207 166
312 305 305 304 302 301 301 299 290 285 281 277 273 270 276 270 251 247 246 261 244 237 238 225 227 231 235 242 232 214 207 224 201 198 194 188 170 210 216 223 234 224 157
309 314 314 313 311 309 305 299 296 291 286 285 277 271 258 250 254 248 237 239 239 240 236 233 226 221 227 239 255 267 287 253 200 187 192 182 188 195 217 204 211 234 160
308 315 315 313 313 312 310 307 302 297 289 283 280 272 264 260 247 245 247 235 232 227 229 228 229 219 214 221 237 248 267 275 291 190 154 206 198 196 192 194 217 204 209
324 321 321 319 317 315 313 311 307 306 304 300 292 283 275 262 271 237 237 240 238 249 232 215 213 218 220 221 228 235 245 275 283 359 35 106 41 342 207 189 162 205 178
331 328 327 323 320 315 311 309 307 307 306 301 299 290 283 278 260 268 229 230 226 219 227 237 226 214 213 221 223 228 222 228 215 240 272 30 358 330 327 309 196 187 148